Flag for Norway Weather past 2 weeks in Stavern, Norway

Now
50 °F

Partly sunny.


Feels Like: 49 °F
Forecast: 45 / 53 °F
Wind: 3 mph from South

Location: Torp

Current Time: Sep 23, 2014 at 11:27:32 AM

Latest Report: Sep 23, 2014 at 10:50 AM


Visibility: N/A

Pressure: 29.98 "Hg

Humidity: 71%

Dew point: 41 °F

Location of StavernLocation

Historic Weather in Stavern — Graph

°F

Stavern temperature yesterday

Maximum temperature yesterday: 55 °F (at 2:50 PM)
Minimum temperature yesterday: 45 °F (at 10:50 PM)
Average temperature yesterday: 49 °F

Past Weeks' High & Low Weather Summary

 TemperatureHumidityPressure
High66 °F (Sep 11, 12:50 PM)100% (Sep 8, 9:50 PM)30.48 "Hg (Sep 8, 9:50 PM)
Low37 °F (Sep 23, 6:20 AM)41% (Sep 22, 2:50 PM)29.77 "Hg (Sep 9, 1:20 AM)
Average55 °F81%30.15 "Hg
* Reported Sep 8 10:20 AM — Sep 23 10:20 AM, Stavern, Weather by CustomWeather, © 2014

Note: Actual official high and low records may vary slightly from our data, if they occured in-between our weather recording intervals... More about our weather records

Advertising

Stavern weather history for previous 24 hours

 ConditionsComfort  
Time TempWeatherWind HumidityBarometerVisibility
10:20 AM
Sep 23
46 °FOvercast.1 mph87%29.98 "HgN/A
9:50 AM45 °FBroken clouds.No wind93%30.01 "HgN/A
9:20 AM45 °FBroken clouds.1 mph87%30.01 "HgN/A
8:50 AM43 °FPartly sunny.No wind87%30.01 "HgN/A
8:20 AM41 °FPartly sunny.1 mph87%30.01 "HgN/A
7:50 AM39 °FPassing clouds.2 mph87%30.01 "HgN/A
7:20 AM39 °FClear.3 mph81%30.01 "Hg10 mi
6:50 AM39 °FClear.2 mph87%30.01 "Hg10 mi
6:20 AM37 °FClear.1 mph93%30.01 "Hg10 mi
5:50 AM41 °FClear.2 mph81%30.01 "Hg10 mi
5:20 AM39 °FMostly cloudy.2 mph87%30.01 "HgN/A
4:50 AM39 °FMostly cloudy.2 mph87%30.04 "HgN/A
4:20 AM39 °FOvercast.2 mph87%30.04 "HgN/A
3:50 AM39 °FOvercast.3 mph81%30.04 "HgN/A
3:20 AM41 °FPassing clouds.1 mph76%30.04 "HgN/A
2:50 AM41 °FPassing clouds.1 mph76%30.04 "HgN/A
2:20 AM41 °FQuite cool.2 mph76%30.07 "HgN/A
1:50 AM41 °FPassing clouds.2 mph81%30.07 "HgN/A
1:20 AM41 °FPassing clouds.2 mph81%30.07 "HgN/A
12:50 AM43 °FQuite cool.3 mph76%30.07 "HgN/A
12:20 AM43 °FQuite cool.2 mph76%30.07 "HgN/A
11:50 PM
Sep 22
45 °FQuite cool.3 mph71%30.07 "HgN/A
11:20 PM45 °FClear.2 mph71%30.07 "Hg10 mi
10:50 PM45 °FClear.2 mph71%30.07 "Hg10 mi
10:20 PM46 °FClear.2 mph66%30.07 "Hg10 mi
9:50 PM46 °FClear.5 mph66%30.04 "Hg10 mi
9:20 PM46 °FClear.2 mph66%30.04 "Hg10 mi
8:50 PM46 °FClear.1 mph66%30.04 "Hg10 mi
8:20 PM46 °FClear.5 mph66%30.04 "Hg10 mi
7:50 PM48 °FSunny.6 mph62%30.04 "Hg10 mi
7:20 PM50 °FSunny.6 mph54%30.01 "Hg10 mi
6:50 PM52 °FSunny.10 mph50%30.01 "Hg10 mi
6:20 PM52 °FSunny.10 mph50%30.01 "Hg10 mi
5:50 PM54 °FSunny.13 mph47%30.01 "Hg10 mi
5:20 PM54 °FSunny.15 mph47%30.01 "Hg10 mi
4:50 PM55 °FSunny.14 mph44%30.01 "Hg10 mi
4:20 PM55 °FPassing clouds.14 mph44%30.01 "HgN/A
3:50 PM55 °FSunny.17 mph41%30.01 "Hg10 mi
3:20 PM55 °FSunny.16 mph41%30.01 "Hg10 mi
2:50 PM55 °FSunny.16 mph41%30.01 "Hg10 mi
2:20 PM54 °FSunny.20 mph44%30.01 "Hg10 mi
1:50 PM54 °FSunny.20 mph44%30.01 "Hg10 mi
1:20 PM54 °FPassing clouds.18 mph47%30.01 "HgN/A
12:50 PM54 °FSunny.20 mph44%30.01 "Hg10 mi
12:20 PM52 °FSunny.21 mph50%30.01 "Hg10 mi
11:50 AM50 °FSunny.23 mph50%30.01 "Hg10 mi
11:20 AM50 °FSunny.23 mph54%29.98 "Hg10 mi
Weather by CustomWeather, © 2014

See weather overviewHow to use our weather pages

wound